Regional Weather Roundup
Issued by NWS Wakefield, VA

Home | Current Version | Previous Version | Graphics & Text | Print | Product List | Glossary On
Versions: 1 2 3 4 5 6 7 8 9 10 11 12 13 14 15 16 17 18 19 20 21 22 23 24 25 26 27
000
ASUS41 KAKQ 211016
RWRAKQ

REGIONAL WEATHER ROUNDUP
NATIONAL WEATHER SERVICE WAKEFIELD VA
600 AM EDT FRI JUL 21 2017

Note: "fair" indicates few or no clouds below 12,000 feet with no
significant weather and/or obstructions to visibility. * = Denotes
station may not report precipitation (e.g., rain,snow,etc.),
thunder or fog.

VAZ042-051-052>054-056-211100-
NORTHERN VIRGINIA

CITY           SKY/WX    TMP DP  RH WIND       PRES   REMARKS
WASH NATIONAL  MOCLDY    82  72  71 SW3       29.93R
DULLES         MOCLDY    73  68  84 CALM      29.94R
FORT BELVOIR   PTCLDY    72  69  91 CALM      29.93R
QUANTICO       CLOUDY    77  75  93 NW6       29.93S
FREDERICKSBRG* CLOUDY    73  73 100 CALM      29.93R
STAFFORD*      CLOUDY    70  70 100 CALM      29.98R FOG
WARRENTON        N/A     70  67  90 CALM      29.94R FOG
CULPEPER*      CLOUDY    70  70  99 CALM      29.96R FOG
MANASSAS*      CLOUDY    73  72  96 CALM      29.94R
LEESBURG*      CLEAR     79  72  78 CALM      29.95R
WINCHESTER     CLEAR     68  64  88 CALM      29.97R
FRONT ROYAL*   SUNNY     72  68  88 CALM      29.96R
LURAY*         CLOUDY    70  68  94 CALM      29.98R
$$

VAZ048-049-060>072-079>083-211100-
CENTRAL AND SOUTH CENTRAL VIRGINIA

CITY           SKY/WX    TMP DP  RH WIND       PRES   REMARKS
RICHMOND       CLOUDY    76  71  85 SW3       29.94R
CHESTERFIELD*  NOT AVBL
PETERSBURG*    CLOUDY    70  70 100 CALM      29.95R
HANOVER        CLOUDY    73  69  87 CALM      29.95R
TAPPAHANNOCK*  CLOUDY    74  71  89 CALM      29.94S
QUINTON*       FAIR      73  73 100 CALM      29.93S
CHARLOTTSVILLE PTCLDY    77  68  73 SW3       29.96R
GORDONSVILLE*  CLOUDY    70  69  98 CALM      29.95S
ORANGE*        CLOUDY    70  68  94 CALM      29.95S
LOUISA*        PTCLDY    66  64  94 CALM      29.95S
BUMPASS*       FAIR      71  71 100 CALM      29.95R
FARMVILLE*     CLOUDY    72  70  92 CALM      29.95S FOG
CREWE*         FAIR      71  67  87 CALM      29.95S
FORT PICKETT*  FAIR     N/A N/A N/A CALM      29.96R
CHASE CITY*    FAIR      73  73  99 CALM      29.97R
CLARKSVILLE*   FAIR      72  72 100 CALM      29.96S
SOUTH HILL*    CLOUDY    74  72  95 CALM      30.01S
LAWRENCEVILLE* FAIR      72  70  93 CALM      29.96R
EMPORIA*       CLEAR     72  72 100 CALM      29.97R
$$

VAZ088>098-211100-
SOUTHEAST VIRGINIA

CITY           SKY/WX    TMP DP  RH WIND       PRES   REMARKS
NORFOLK        CLEAR     78  75  90 SW10      29.94S
VIRGINIA BEACH MOCLDY    77  72  84 SW8       29.94S
NORFOLK NAVAL  PTCLDY    79  74  84 SW6       29.95S
WEST POINT*    CLOUDY    76  71  86 S3        29.95R
SALUDA*        FAIR      77  73  88 CALM      29.93S
NEWPORT NEWS   CLOUDY    78  74  87 SW6       29.94R
LANGLEY AFB    CLEAR     78  74  87 SW7       29.93S
FORT EUSTIS    CLEAR     78  74  87 W5        29.92R
WILLIAMSBURG*  CLEAR     79  73  83 CALM      29.95R
HR EXEC AP*    NOT AVBL
FRANKLIN*      PTCLDY    75  73  94 CALM      29.95S
US460-WAKEFLD  CLEAR     76  74  93 S3        29.95R
$$

VAZ020-022-025-037-045-211100-
WEST CENTRAL AND SOUTHWEST VIRGINIA

CITY           SKY/WX    TMP DP  RH WIND       PRES   REMARKS
STAUNTON*      CLOUDY    71  67  89 CALM      30.02S
WAYNESBORO*    CLOUDY    69  67  93 CALM      30.02R
HOT SPRINGS VA CLOUDY    68  61  77 W3        30.16S
LYNCHBURG      CLOUDY    68  67  96 CALM      30.00R
DANVILLE       PTCLDY    71  71 100 CALM      29.98S
SOUTH BOSTON*  FAIR      73  72  96 CALM      29.97S
MARTINSVILLE   CLEAR     66  65  97 CALM      30.04R FOG
ROANOKE        CLEAR     74  66  76 NW3       30.04S
BLACKSBURG     CLEAR     66  64  93 CALM      30.12S
DUBLIN*        CLEAR     68  61  77 SW5       30.10S
MARION*        CLEAR     64  61  88 W5        30.16R
HILLSVILLE*    CLEAR     66  61  84 CALM      30.12S
RICHLANDS*     FAIR      69  61  75 CALM      30.15R
WISE*          CLOUDY    70  64  83 CALM      30.16R
ABINGDON*      PTCLDY    67  66  95 CALM      30.12R
$$

MDZ021>025-VAZ099-100-211100-
SOUTHERN MARYLAND AND THE DELMARVA PENINSULA

CITY           SKY/WX    TMP DP  RH WIND       PRES   REMARKS
PATUXENT RIVER CLOUDY    77  75  93 SW7       29.91S
BAY BRIDGE APT CLEAR     82  72  69 W5        29.91R
LEONARDTOWN    CLOUDY   N/A N/A N/A CALM      29.94S
DOVER          PTCLDY    78  78 100 SW5       29.89R
GEORGETOWN     PTCLDY    80  74  81 W5        29.91R
EASTON         PTCLDY    79  75  89 CALM      29.95R
CAMBRIDGE      CLEAR     77  73  88 CALM      29.91S
SALISBURY      CLEAR     77  75  94 SW6       29.91
OCEAN CITY     PTCLDY    79  75  87 W9        29.91R
WALLOPS ISLAND CLOUDY    79  76  90 W6        29.92S
ACCOMACK*      PTCLDY    80  75  86 SW6       29.93S
$$

NCZ012>017-030>032-211100-
NORTH CENTRAL AND EASTERN NORTH CAROLINA

CITY           SKY/WX    TMP DP  RH WIND       PRES   REMARKS
ROANOKE RAPIDS FAIR      73  73 100 S5        29.95F
RALEIGH        PTCLDY    74  72  93 SW6       29.98S
ELIZABETH CITY CLEAR     76  75  97 SW3       29.96S
AHOSKIE*         N/A     73  73  98 CALM      29.96S
EDENTON*       CLEAR     80  75  86 CALM      29.98R
CURRITUCK*     CLEAR     77  77 100 SW3       29.97R
KILL DEVIL HLS CLEAR     77  73  85 CALM      29.96S
MANTEO         CLEAR     77  73  88 W6        29.98S
CAPE HATTERAS  PTCLDY    78  74  87 SW5       29.98S
TARBORO*       NOT AVBL
GOLDSBORO      CLEAR     75  75 100 SW5       29.97S
WASHINGTON     CLEAR     75  73  94 SW6       29.98S
GREENVILLE     CLEAR     75  73  94 W3        30.00R
NEW BERN       CLEAR     75  75 100 SW6       29.99S
WILMINGTON     CLEAR     77  76  96 SW7       30.00R
$$

VAZ048-211100-
ELSEWHERE

CITY           SKY/WX    TMP DP  RH WIND       PRES   REMARKS
HARRISBURG PA  PTCLDY    76  71  85 NW6       29.92R
BALTIMORE      MOCLDY    76  70  82 W5        29.91R
ANNAPOLIS      CLEAR     77  74  90 CALM      29.90R
ANDREWS AFB    CLEAR     76  69  79 W5        29.92R
PHILADELPHIA   PTCLDY    80  69  69 NW3       29.90R
HENDERSON NC   CLEAR     72  69  90 SW5       29.98R
GREENSBORO     PTCLDY    75  73  93 NW5       30.01R
ROCKY MOUNT    CLEAR     75  75 100 S5        29.97S
$$

VAZ100-211100-
MARINE

STATION/POSITION TIME  TEMP    WIND        PRES    WAVE   SWELL
                       AIR SEA DIR/SP/G            HT/PER HT/PER
                 (UTC) (F)     (DEG/KT/KT) (MB)    (FT/S) (FT/S)
BRANDYWINE LGT   0948          250/ 13/ 13   N/A
CAPE MAY NJ      0948   76 74  250/  5/  6 1011.9R
LEWES DE         0948   80 71  260/  7/  8 1012.2R
15NM E FENWICK I 0950   75 75  220/ 12/ 14 1012.8R   3/ 6   2/ 6
OCEAN-CITY-INLET 0948   78 69  280/  7/  9 1012.9R
WACHAPREAGUE VA  0948   78 83  230/  2/  4 1013.3R
THOMAS POINT MD  1000   82 82  290/  7/  8   N/A
GOOSES REEF MD   1000   83 83  320/  6/  8 1013.7
COVE POINT MD    0948   81     310/  5/  7 1013.5R
SOLOMONS ISLAND  0948   81 84  240/  3/  3   N/A
BISHOPS HEAD MD  0948   83 85  270/  7/ 10 1013.2R
PINEY POINT MD   0942          260/  5/  7   N/A
POTOMAC MD       1000   82 84  260/  8/  8 1012.2    1/ 2
CAMBRIDGE MD     0948   79 86              1013.6R
LEWISETTA VA     0948   80 85  260/  6/  7 1013.2R
RAPPAHANNOCK LGT 0942          230/  9/ 11 1014.1R
STINGRAY PT      0950   81     260/  6/  8 1013.5R
YORK RVR RNG VA  0948   80     250/ 12/ 13 1013.8R
YORKTOWN VA      0948   79 83  220/  5/  7 1013.2R
JAMESTOWN VA     1000      86  220/  6/  8   N/A     0
DOMINION TERM VA 0948   80     230/ 10/ 11 1013.8S
KIPTOPEKE VA     0942      80  230/  8/ 10   N/A
CHES BAY BRIDGE  0948   79 77  230/ 11/ 13 1013.6S
CAPE HENRY VA    0948   79     220/  9/ 12   N/A
WILLOUBY STN VA  0948   78     230/ 11/ 12 1013.7R
S CRANEY ISL VA  0948   78     210/  7/  9 1013.6S
CAPE HENRY BUOY  1000      74                N/A     3/ 8   2/14
1ST LANDING BUOY 1000   80 80              1013.6    1/ 3
64NM E OF VA BCH 0950   80 80  240/ 10/ 12 1014.9R   3/ 4   2/ 8
DUCK PIER NC     0948   80 59  230/  9/ 12 1014.2R
44100 DUCK FRF   0905      76                N/A     2/15   2/15
44056 DUCK FRF   1000      63                N/A     2/15   2/15
OREGON INLET NC  0948          240/ 10/ 12   N/A
HATTERAS NC      0948   78 79  230/  5/  7 1015.1R
DIAMOND SHLS NC  0950   82 84  260/ 12/ 14 1015.2R   3/ 4   2/ 8
CAPE LOOKOUT NC  1000   80     250/  9/ 11 1015.4R
$$




USA.gov is the U.S. government's official web portal to all federal, state and local government web resources and services.